Date String (YYYY-MM-DD hh:mm:ss) UTC,Instrument flags,absolute air pressure of the measurement (hPa),sample flow rate (lpm),inlet stack bypass flow (lpm),air temperature of the measurement (°C),ambient temperature measured by the external sensor (°C),aerosol sample conditioner tube jacket temperature (°C),OPC LED temperature (°C),internal box temperature (°C),relative humidity of the measurement (%),span deviation,mass concentration of particles derived from Lorenz-Mie calculation of OPC scattering (μg/m³),mass concentration of particles derived from Lorenz-Mie calculation of OPC scattering (μg/m³),mass concentration of particles derived from Lorenz-Mie calculation of OPC scattering (μg/m³)
DateTimeUTC,F1_M11,P_M11,Q1_M11,Q2_M11,T1_M11,T2_M11,T3_M11,T4_M11,T5_M11,U1_M11,ZSPAN_M11,X0_M11,X2_M11,X1_M11
2024-03-18 19:00:00,SystemResetWarning,0833.7,5.01,000.00,020.7,020.2,000.0,029.0,022.5,17.2,0000.0,0007.61,0002.09,0001.33
2024-03-18 19:01:00,SystemResetWarning,0833.7,4.98,000.00,020.7,020.2,000.0,029.0,022.5,18.1,0000.0,0007.65,0002.03,0001.26
2024-03-18 19:02:00,SystemResetWarning,0833.7,4.99,000.00,020.7,020.2,000.0,029.0,022.5,17.8,0000.0,0007.11,0002.00,0001.23
2024-03-18 19:03:00,SystemResetWarning,0833.7,5.01,000.00,020.7,020.2,000.0,029.1,022.5,17.2,0000.0,0006.85,0001.96,0001.16
2024-03-18 19:04:00,SystemResetWarning,0833.7,5.01,000.00,020.8,020.2,000.0,029.1,022.5,16.1,0000.0,0007.16,0001.90,0001.13
2024-03-18 19:05:00,SystemResetWarning,0833.6,5.00,000.00,020.8,020.2,000.0,029.1,022.5,16.6,0000.0,0007.22,0001.90,0001.12
2024-03-18 19:06:00,SystemResetWarning,0833.6,4.99,000.00,020.8,020.2,000.0,029.1,022.5,16.1,0000.0,0007.24,0001.93,0001.14
2024-03-18 19:07:00,SystemResetWarning,0833.6,4.99,000.00,020.8,020.2,000.0,029.1,022.5,15.6,0000.0,0007.13,0001.94,0001.16
2024-03-18 19:08:00,SystemResetWarning,0833.5,5.00,000.00,020.8,020.2,000.0,029.1,022.5,16.4,0000.0,0007.64,0001.92,0001.16
2024-03-18 19:09:00,SystemResetWarning,0833.6,5.00,000.00,020.8,020.2,000.0,029.1,022.5,16.8,0000.0,0007.61,0001.93,0001.17
2024-03-18 19:10:00,SystemResetWarning,0833.6,5.01,000.00,020.8,020.2,000.0,029.1,022.5,15.5,0000.0,0007.16,0002.00,0001.17
2024-03-18 19:11:00,SystemResetWarning,0833.5,5.01,000.00,020.8,020.2,000.0,029.1,022.5,15.5,0000.0,0006.47,0002.01,0001.17
2024-03-18 19:12:00,SystemResetWarning,0833.5,5.00,000.00,020.8,020.2,000.0,029.1,022.5,15.2,0000.0,0006.68,0002.02,0001.17
2024-03-18 19:13:00,SystemResetWarning,0833.5,5.00,000.00,020.8,020.2,000.0,029.1,022.5,15.5,0000.0,0007.02,0002.03,0001.18
2024-03-18 19:14:00,SystemResetWarning,0833.5,5.00,000.00,020.8,020.2,000.0,029.1,022.5,15.7,0000.0,0006.92,0002.03,0001.21
2024-03-18 19:15:00,SystemResetWarning,0833.5,5.00,000.00,020.8,020.2,000.0,029.1,022.5,14.4,0000.0,0006.62,0002.06,0001.21
2024-03-18 19:16:00,SystemResetWarning,0833.5,5.00,000.00,020.8,020.2,000.0,029.2,022.6,14.6,0000.0,0007.11,0002.07,0001.21
2024-03-18 19:17:00,SystemResetWarning,0833.4,5.00,000.00,020.8,020.2,000.0,029.2,022.6,14.2,0000.0,0007.72,0002.07,0001.20
2024-03-18 19:18:00,SystemResetWarning,0833.4,5.00,000.00,020.8,020.2,000.0,029.2,022.6,14.1,0000.0,0007.80,0002.06,0001.20
2024-03-18 19:19:00,SystemResetWarning,0833.4,5.00,000.00,020.8,020.2,000.0,029.2,022.6,14.5,0000.0,0007.30,0002.06,0001.20
2024-03-18 19:20:00,SystemResetWarning,0833.4,5.00,000.00,020.8,020.2,000.0,029.2,022.6,14.8,0000.0,0006.85,0002.07,0001.20
2024-03-18 19:21:00,SystemResetWarning,0833.4,5.00,000.00,020.8,020.2,000.0,029.2,022.6,14.5,0000.0,0006.93,0002.11,0001.20
2024-03-18 19:22:00,SystemResetWarning,0833.4,5.01,000.00,020.8,020.2,000.0,029.2,022.6,15.5,0000.0,0006.78,0002.16,0001.21
2024-03-18 19:23:00,SystemResetWarning,0833.4,5.00,000.00,020.8,020.2,000.0,029.2,022.6,15.3,0000.0,0006.50,0002.17,0001.22
2024-03-18 19:24:00,SystemResetWarning,0833.4,5.01,000.00,020.8,020.2,000.0,029.2,022.6,14.8,0000.0,0006.05,0002.13,0001.23
2024-03-18 19:25:00,SystemResetWarning,0833.4,5.00,000.00,020.8,020.2,000.0,029.2,022.6,15.4,0000.0,0006.04,0002.11,0001.24
2024-03-18 19:26:00,SystemResetWarning,0833.4,5.00,000.00,020.9,020.2,000.0,029.2,022.6,14.5,0000.0,0006.97,0002.12,0001.25
2024-03-18 19:27:00,SystemResetWarning,0833.4,5.00,000.00,020.9,020.2,000.0,029.2,022.6,14.1,0000.0,0007.05,0002.17,0001.27
2024-03-18 19:28:00,SystemResetWarning,0833.4,5.00,000.00,020.9,020.2,000.0,029.2,022.6,14.4,0000.0,0006.82,0002.19,0001.29
2024-03-18 19:29:00,SystemResetWarning,0833.4,4.99,000.00,020.9,020.2,000.0,029.2,022.6,14.2,0000.0,0006.94,0002.25,0001.32
2024-03-18 19:30:00,SystemResetWarning,0833.4,4.99,000.00,020.9,020.2,000.0,029.2,022.6,14.7,0000.0,0007.03,0002.27,0001.34
2024-03-18 19:31:00,SystemResetWarning,0833.3,5.00,000.00,020.9,020.2,000.0,029.2,022.6,13.9,0000.0,0007.59,0002.28,0001.34
2024-03-18 19:32:00,SystemResetWarning,0833.3,5.01,000.00,020.9,020.2,000.0,029.2,022.6,13.7,0000.0,0007.63,0002.28,0001.34
2024-03-18 19:33:00,SystemResetWarning,0833.3,5.01,000.00,020.9,020.2,000.0,029.2,022.6,14.4,0000.0,0007.64,0002.27,0001.34
2024-03-18 19:34:00,SystemResetWarning,0833.3,5.01,000.00,020.9,020.2,000.0,029.3,022.6,13.8,0000.0,0007.95,0002.26,0001.34
2024-03-18 19:35:00,SystemResetWarning,0833.3,5.01,000.00,020.9,020.2,000.0,029.3,022.6,13.8,0000.0,0008.33,0002.27,0001.36
2024-03-18 19:36:00,SystemResetWarning,0833.2,4.99,000.00,020.9,020.2,000.0,029.3,022.6,13.8,0000.0,0008.37,0002.28,0001.35
2024-03-18 19:37:00,SystemResetWarning,0833.2,5.00,000.00,020.9,020.2,000.0,029.3,022.6,14.0,0000.0,0008.04,0002.26,0001.36
2024-03-18 19:38:00,SystemResetWarning,0833.2,5.01,000.00,020.9,020.2,000.0,029.3,022.6,14.1,0000.0,0007.88,0002.27,0001.35
2024-03-18 19:39:00,SystemResetWarning,0833.2,5.01,000.00,020.9,020.2,000.0,029.3,022.6,13.9,0000.0,0007.21,0002.26,0001.35
2024-03-18 19:40:00,SystemResetWarning,0833.2,5.00,000.00,020.9,020.2,000.0,029.3,022.6,14.4,0000.0,0006.97,0002.26,0001.34
2024-03-18 19:41:00,SystemResetWarning,0833.2,5.00,000.00,020.9,020.2,000.0,029.3,022.6,14.7,0000.0,0006.86,0002.23,0001.33
2024-03-18 19:42:00,SystemResetWarning,0833.2,5.00,000.00,020.9,020.2,000.0,029.3,022.6,14.6,0000.0,0006.35,0002.23,0001.31
2024-03-18 19:43:00,SystemResetWarning,0833.2,5.00,000.00,020.9,020.3,000.0,029.3,022.7,14.2,0000.0,0006.27,0002.19,0001.30
2024-03-18 19:44:00,SystemResetWarning,0833.2,5.00,000.00,020.9,020.3,000.0,029.3,022.7,13.3,0000.0,0006.06,0002.11,0001.28
2024-03-18 19:45:00,SystemResetWarning,0833.2,5.00,000.00,020.9,020.3,000.0,029.3,022.7,12.9,0000.0,0006.50,0002.04,0001.26
2024-03-18 19:46:00,SystemResetWarning,0833.2,5.00,000.00,020.9,020.3,000.0,029.3,022.7,13.9,0000.0,0005.87,0002.02,0001.25
2024-03-18 19:47:00,SystemResetWarning,0833.2,5.00,000.00,020.9,020.3,000.0,029.3,022.7,13.6,0000.0,0006.17,0002.01,0001.22
2024-03-18 19:48:00,SystemResetWarning,0833.2,5.00,000.00,021.0,020.3,000.0,029.3,022.7,13.6,0000.0,0006.96,0002.00,0001.20
2024-03-18 19:49:00,SystemResetWarning,0833.2,5.00,000.00,021.0,020.3,000.0,029.3,022.7,12.9,0000.0,0006.70,0001.96,0001.18
2024-03-18 19:50:00,SystemResetWarning,0833.2,5.00,000.00,021.0,020.3,000.0,029.3,022.7,12.5,0000.0,0007.65,0001.94,0001.15
2024-03-18 19:51:00,SystemResetWarning,0833.1,5.00,000.00,021.0,020.3,000.0,029.3,022.7,12.2,0000.0,0007.78,0001.91,0001.12
2024-03-18 19:52:00,SystemResetWarning,0833.2,5.00,000.00,021.0,020.3,000.0,029.3,022.7,12.0,0000.0,0007.78,0001.87,0001.10
2024-03-18 19:53:00,SystemResetWarning,0833.1,5.01,000.00,021.0,020.3,000.0,029.3,022.7,13.0,0000.0,0007.79,0001.81,0001.09
2024-03-18 19:54:00,SystemResetWarning,0833.2,5.00,000.00,021.0,020.3,000.0,029.3,022.7,13.3,0000.0,0008.39,0001.79,0001.08
2024-03-18 19:55:00,SystemResetWarning,0833.4,4.98,000.00,021.0,020.3,000.0,029.4,022.7,13.0,0000.0,0008.38,0001.83,0001.08
2024-03-18 19:56:00,SystemResetWarning,0833.0,5.00,000.00,021.0,020.3,000.0,029.4,022.7,13.9,0000.0,0008.06,0001.87,0001.09
2024-03-18 19:57:00,SystemResetWarning,0833.0,5.01,000.00,021.0,020.3,000.0,029.4,022.7,13.6,0000.0,0007.59,0001.88,0001.09
2024-03-18 19:58:00,SystemResetWarning,0833.1,5.00,000.00,021.0,020.3,000.0,029.4,022.7,12.7,0000.0,0007.45,0001.90,0001.10
2024-03-18 19:59:00,SystemResetWarning,0833.0,5.00,000.00,021.0,020.3,000.0,029.4,022.7,12.4,0000.0,0006.71,0001.88,0001.11
